Voltar ao catálogo

COSMOS 716

AtivoMilitarLEO
NORAD 7683·PAYLOAD·🇷🇺 Russia

Lançado Feb 28, 1975 de Plesetsk Cosmodrome

Loading…

Próximas Passagens (próximas 24 horas)

TLE

AtualizadoSource: Space-Track

Época: Sep 14, 2026, 04:26 UTC

1 07683U 75016F   26257.18486731  .00000012  00000-0  20024-3 0  9997
2 07683  74.0042 156.6436 0021365 103.8301  50.2090 12.42449410337726

Acompanhe COSMOS 716 em tempo real com AllMySat

Download on the App Store